[[{"header":{"parameterUnit":"m.s-1","parameterCategory":1,"la1":30.2991,"la2":30.254,"lo1":-89.0895,"lo2":-89.0444,"dx":0.0017,"dy":0.0017,"nx":28,"ny":28,"refTime":"2022-12-18T15:00:00:Z","depth":0,"parameterNumber":2,"parameterNumberName":"U-component_of_WINDS"},"data":[0,0,0,0,0,0,0,0,0,0,0,0,0,0,0,0,0,0,0,0,0,0,0,0,0,0,0,0,0,0,0,0,0,0,0,0,0,0,0,0,0,0,0,0,0,0,0,0,0,0,0,0,0,0,0,0,0,0,-1.342,-1.3421,0,-1.3495,-1.3496,-1.3497,-1.3437,-1.3435,-1.3432,-1.343,-1.3508,-1.3513,-1.3517,0,0,0,0,0,0,0,0,0,0,0,0,0,-1.3226,-1.323,-1.342,-1.3421,-1.3422,-1.3495,-1.3496,-1.3497,-1.3438,-1.3435,-1.3432,-1.3429,-1.3507,-1.3512,-1.3517,0,0,0,0,0,0,0,0,0,0,0,0,0,-1.3307,-1.3231,-1.342,-1.3401,-1.34,-1.3494,-1.3496,-1.3497,-1.3438,-1.3435,-1.3431,-1.3427,-1.3505,-1.3512,-1.3518,-1.3635,0,0,-1.3539,-1.3541,0,0,0,0,0,0,0,0,-1.3302,-1.3314,-1.3403,-1.3403,-1.3402,-1.3453,-1.3456,-1.3543,-1.3439,-1.3424,-1.343,-1.3425,-1.3493,-1.35,-1.3523,-1.3639,-1.3642,-1.3539,-1.3543,-1.3546,-1.3548,0,0,0,0,0,0,0,-1.3296,-1.331,-1.345,-1.3404,-1.3404,-1.3389,-1.3396,-1.3472,-1.3479,-1.3425,-1.3421,-1.3431,-1.3492,-1.3517,-1.3524,-1.3644,-1.3539,-1.3545,-1.3549,-1.3552,-1.3858,-1.3862,0,0,0,0,0,0,-1.3293,-1.3306,-1.3447,-1.3452,-1.3341,-1.3396,-1.3404,-1.344,-1.3478,-1.348,-1.3434,-1.3427,-1.3507,-1.3517,-1.3527,-1.3666,-1.3546,-1.3552,-1.3556,-1.3854,-1.3859,-1.3864,0,0,0,0,0,0,-1.3289,-1.3306,-1.3444,-1.3378,-1.3394,-1.3403,-1.3445,-1.3444,-1.3468,-1.3484,-1.3485,-1.3458,-1.3504,-1.3517,-1.3608,-1.3668,-1.3555,-1.3561,-1.3849,-1.3856,-1.3861,-1.3947,0,0,0,0,0,0,-1.3283,-1.3305,-1.335,-1.3379,-1.3398,-1.3525,-1.3448,-1.3448,-1.348,-1.3472,-1.3507,-1.3509,-1.3503,-1.3599,-1.3615,-1.3675,-1.3567,-1.3844,-1.3852,-1.3859,-1.3939,-1.3955,-1.3969,0,0,0,0,0,-1.3277,-1.3371,-1.3352,-1.337,-1.3454,-1.3528,-1.3539,-1.3529,-1.3485,-1.353,-1.354,-1.3508,-1.3659,-1.3609,-1.3626,-1.369,-1.384,-1.385,-1.3859,-1.3932,-1.3952,-1.3969,0,0,0,0,0,0,-1.335,-1.3375,-1.3354,-1.3461,-1.3493,-1.3518,-1.3575,-1.3551,-1.3596,-1.3588,-1.3573,-1.3581,-1.3677,-1.3692,-1.3636,-1.3804,-1.3742,-1.3756,-1.3792,-1.3811,-1.3826,-1.3821,-1.3572,0,0,0,0,0,-1.3378,-1.3436,-1.3455,-1.3547,-1.3564,-1.3567,-1.3599,-1.3588,-1.3621,-1.3634,-1.3651,-1.3684,-1.3739,-1.3775,-1.3826,-1.3939,-1.3946,-1.3992,-1.4007,-1.4019,-1.4032,-1.4092,-1.4112,-1.3894,-1.3894,-1.3894,0,0,-1.3437,-1.3458,-1.3496,-1.3562,-1.3586,-1.3646,-1.3579,-1.3646,-1.3691,-1.3644,-1.3732,-1.3745,-1.3781,-1.3883,-1.3929,-1.3899,-1.4093,-1.4031,-1.4041,-1.4047,-1.4104,-1.4124,-1.4143,-1.3901,-1.3899,-1.3898,0,0,-1.3577,-1.3598,-1.3678,-1.3702,-1.3738,-1.3739,-1.3758,-1.3787,-1.3793,-1.388,-1.3846,-1.3899,-1.3993,-1.402,-1.4046,-1.4194,-1.4166,-1.4211,-1.4291,-1.435,-1.4367,-1.4382,-1.4436,-1.4455,-1.4222,-1.4223,-1.4223,0,-1.3647,-1.3737,-1.3722,-1.3791,-1.3821,-1.378,-1.386,-1.3885,-1.3936,-1.3958,-1.3922,-1.4039,-1.406,-1.4168,-1.4204,-1.4226,-1.4247,-1.4208,-1.4366,-1.4381,-1.4395,-1.4445,-1.4465,-1.4228,-1.4227,-1.4227,-1.4226,0,-1.3821,-1.3883,-1.3943,-1.3992,-1.4029,-1.4103,-1.4099,-1.4138,-1.4123,-1.4127,-1.4216,-1.4239,-1.4294,-1.4318,-1.4305,-1.4424,-1.4404,-1.4368,-1.4305,-1.4421,-1.4468,-1.4488,-1.4235,-1.4233,-1.4232,-1.4231,0,0,-1.4012,-1.405,-1.4072,-1.4094,-1.4129,-1.4177,-1.4249,-1.4302,-1.4335,-1.4371,-1.4431,-1.4511,-1.4476,-1.4506,-1.4495,-1.4546,-1.4662,-1.4503,-1.4504,-1.4533,-1.4795,-1.4823,-1.4846,-1.4642,-1.4646,-1.4649,-1.4792,0,-1.4153,-1.4279,-1.4266,-1.4385,-1.4443,-1.4403,-1.4466,-1.4494,-1.45,-1.4549,-1.4554,-1.4612,-1.4562,-1.4579,-1.4628,-1.4637,-1.4714,-1.4626,-1.4699,-1.4702,-1.4693,-1.487,-1.4901,-1.5035,-1.481,-1.4813,-1.4815,0,-1.4337,-1.4378,-1.4503,-1.4528,-1.4552,-1.4608,-1.4655,-1.4702,-1.4733,-1.4733,-1.4765,-1.4745,-1.4816,-1.4751,-1.485,-1.479,-1.4818,-1.4827,-1.4832,-1.484,-1.4767,-1.4884,-1.5077,-1.5098,-1.4844,-1.4842,-1.484,0,-1.4464,-1.4551,-1.4636,-1.4656,-1.4687,-1.4728,-1.4743,-1.477,-1.4802,-1.4843,-1.4863,-1.4912,-1.4939,-1.4977,-1.4969,-1.4922,-1.507,-1.5004,-1.5073,-1.5073,-1.5108,-1.5106,-1.531,-1.5124,-1.5123,-1.5123,-1.5123,0,-1.4625,-1.4703,-1.4694,-1.4747,-1.4833,-1.4817,-1.4902,-1.4912,-1.4936,-1.499,-1.4958,-1.501,-1.4996,-1.5047,-1.5041,-1.5124,-1.5136,-1.5139,-1.5137,-1.5143,-1.5142,-1.5162,-1.5153,-1.5128,-1.5127,-1.5126,-1.5125,0,-1.4784,-1.478,-1.4871,-1.4893,-1.49,-1.4962,-1.4981,-1.503,-1.5032,-1.51,-1.5116,-1.5119,-1.5176,-1.5172,-1.5237,-1.5233,-1.5336,-1.5322,-1.5326,-1.5323,-1.5393,-1.5387,-1.5618,-1.5647,-1.5441,-1.5443,-1.5444,0,-1.4888,-1.4946,-1.4974,-1.5007,-1.5025,-1.5079,-1.5111,-1.5097,-1.5132,-1.517,-1.5215,-1.527,-1.5313,-1.5407,-1.5415,-1.5464,-1.5452,-1.553,-1.546,-1.5464,-1.5455,-1.5452,-1.5458,-1.5544,-1.5547,-1.5548,-1.555,0,-1.5073,-1.5067,-1.5115,-1.5161,-1.52,-1.5236,-1.5269,-1.5298,-1.5287,-1.5328,-1.5386,-1.5419,-1.5485,-1.554,-1.5586,-1.5601,-1.5575,-1.5571,-1.559,-1.5598,-1.5598,-1.56,-1.5365,-1.5567,-1.5565,-1.5564,-1.5563,-1.5562,-1.5208,-1.5258,-1.5285,-1.5338,-1.5361,-1.5392,-1.5439,-1.5446,-1.5494,-1.5546,-1.5534,-1.56,-1.5627,-1.5687,-1.5706,-1.5757,-1.573,-1.5757,-1.5764,-1.5771,-1.5779,-1.5588,-1.5765,-1.5765,-1.5765,-1.5764,-1.5764,0,-1.5392,-1.5406,-1.5455,-1.5502,-1.5544,-1.5512,-1.5547,-1.5584,-1.5642,-1.5669,-1.5712,-1.5778,-1.583,-1.5842,-1.5891,-1.593,-1.5919,-1.5944,-1.5942,-1.5946,-1.5801,-1.578,-1.5952,-1.5952,-1.5952,-1.5952,-1.5952,-1.5952,-1.5493,-1.5576,-1.5574,-1.5668,-1.5681,-1.5745,-1.5767,-1.5795,-1.5817,-1.5893,-1.5935,-1.5942,-1.5963,-1.6013,-1.606,-1.6061,-1.6082,-1.6112,-1.6109,-1.5974,-1.5956,-1.5938,-1.5918,-1.6116,-1.6116,-1.6249,-1.6251,-1.6252]},{"header":{"parameterUnit":"m.s-1","parameterCategory":1,"la1":30.2991,"la2":30.254,"lo1":-89.0895,"lo2":-89.0444,"dx":0.0017,"dy":0.0017,"nx":28,"ny":28,"refTime":"2022-12-18T15:00:00:Z","depth":0,"parameterNumber":3,"parameterNumberName":"V-component_of_WINDS"},"data":[0,0,0,0,0,0,0,0,0,0,0,0,0,0,0,0,0,0,0,0,0,0,0,0,0,0,0,0,0,0,0,0,0,0,0,0,0,0,0,0,0,0,0,0,0,0,0,0,0,0,0,0,0,0,0,0,0,0,-5.2358,-5.236,0,-5.249,-5.2491,-5.2493,-5.2398,-5.2394,-5.239,-5.2386,-5.2518,-5.2525,-5.2532,0,0,0,0,0,0,0,0,0,0,0,0,0,-5.2021,-5.2028,-5.2358,-5.236,-5.2361,-5.2489,-5.2491,-5.2493,-5.2399,-5.2394,-5.2389,-5.2384,-5.2515,-5.2524,-5.2533,0,0,0,0,0,0,0,0,0,0,0,0,0,-5.2162,-5.203,-5.2358,-5.233,-5.2329,-5.2489,-5.2491,-5.2493,-5.24,-5.2394,-5.2388,-5.2382,-5.2512,-5.2523,-5.2534,-5.2728,0,0,-5.2568,-5.2573,0,0,0,0,0,0,0,0,-5.2154,-5.2174,-5.2333,-5.2332,-5.2331,-5.2421,-5.242,-5.2572,-5.2402,-5.2373,-5.2386,-5.2379,-5.249,-5.2503,-5.2541,-5.2734,-5.2739,-5.2569,-5.2576,-5.258,-5.2584,0,0,0,0,0,0,0,-5.2144,-5.2168,-5.241,-5.2335,-5.2334,-5.231,-5.2323,-5.2449,-5.2465,-5.2375,-5.2369,-5.2386,-5.2489,-5.2531,-5.2544,-5.2741,-5.2569,-5.2578,-5.2585,-5.259,-5.3097,-5.3103,0,0,0,0,0,0,-5.2137,-5.216,-5.2406,-5.2414,-5.2225,-5.2321,-5.2335,-5.2399,-5.2464,-5.2468,-5.2391,-5.2381,-5.2515,-5.2531,-5.2548,-5.2778,-5.258,-5.2591,-5.2597,-5.309,-5.3098,-5.3106,0,0,0,0,0,0,-5.2131,-5.216,-5.24,-5.2286,-5.2314,-5.2333,-5.2405,-5.2405,-5.2446,-5.2476,-5.2477,-5.2431,-5.2511,-5.2532,-5.2683,-5.2781,-5.2596,-5.2606,-5.3082,-5.3093,-5.3102,-5.3239,0,0,0,0,0,0,-5.2121,-5.2158,-5.2234,-5.2288,-5.2321,-5.2536,-5.2411,-5.2412,-5.2466,-5.2454,-5.2514,-5.2517,-5.2507,-5.2667,-5.2694,-5.2793,-5.2614,-5.3073,-5.3087,-5.3099,-5.3226,-5.3253,-5.3276,0,0,0,0,0,-5.211,-5.2267,-5.2238,-5.2268,-5.2415,-5.2542,-5.256,-5.2546,-5.2475,-5.2549,-5.2567,-5.2516,-5.2766,-5.2684,-5.2713,-5.2816,-5.3067,-5.3083,-5.3098,-5.3215,-5.3248,-5.3275,0,0,0,0,0,0,-5.2223,-5.2273,-5.2242,-5.2421,-5.2478,-5.2525,-5.2619,-5.2582,-5.2659,-5.2645,-5.2623,-5.2637,-5.2795,-5.2821,-5.2728,-5.3006,-5.2905,-5.2927,-5.2984,-5.3015,-5.304,-5.303,-5.2624,0,0,0,0,0,-5.2268,-5.2368,-5.2407,-5.2561,-5.2591,-5.2601,-5.2655,-5.264,-5.2697,-5.272,-5.2749,-5.2806,-5.2897,-5.2957,-5.3043,-5.3229,-5.324,-5.3315,-5.3339,-5.336,-5.3379,-5.3478,-5.3511,-5.3156,-5.3156,-5.3156,0,0,-5.2364,-5.2404,-5.2468,-5.2585,-5.2627,-5.2729,-5.2622,-5.2735,-5.281,-5.2737,-5.2881,-5.2905,-5.2966,-5.3135,-5.3211,-5.3162,-5.3479,-5.3379,-5.3395,-5.3404,-5.3497,-5.353,-5.356,-5.3167,-5.3165,-5.3163,0,0,-5.259,-5.2632,-5.2764,-5.2808,-5.2873,-5.2878,-5.291,-5.2963,-5.2976,-5.3121,-5.3068,-5.3156,-5.3314,-5.3359,-5.3403,-5.3645,-5.36,-5.3673,-5.3803,-5.39,-5.3928,-5.3952,-5.4038,-5.4069,-5.3692,-5.3693,-5.3693,0,-5.2701,-5.2854,-5.2837,-5.2954,-5.3006,-5.2945,-5.3078,-5.3121,-5.3211,-5.3247,-5.319,-5.3386,-5.3423,-5.3601,-5.366,-5.3698,-5.3732,-5.3667,-5.3925,-5.395,-5.3973,-5.4054,-5.4086,-5.3701,-5.37,-5.3699,-5.3699,0,-5.2986,-5.3093,-5.3192,-5.328,-5.3343,-5.3468,-5.3468,-5.3533,-5.3512,-5.3522,-5.3669,-5.3711,-5.3804,-5.3845,-5.3825,-5.402,-5.3987,-5.3928,-5.3826,-5.4015,-5.4091,-5.4122,-5.3713,-5.371,-5.3708,-5.3706,0,0,-5.3288,-5.3365,-5.3401,-5.344,-5.3506,-5.3588,-5.3708,-5.3799,-5.3855,-5.3918,-5.4018,-5.4152,-5.4098,-5.4148,-5.4132,-5.4217,-5.4404,-5.4147,-5.4148,-5.4193,-5.462,-5.4664,-5.47,-5.4374,-5.438,-5.4385,-5.4615,0,-5.3518,-5.3729,-5.3716,-5.3915,-5.4012,-5.3955,-5.4059,-5.411,-5.4123,-5.4206,-5.4219,-5.4315,-5.4236,-5.4266,-5.4347,-5.4364,-5.4489,-5.4347,-5.4465,-5.447,-5.4452,-5.474,-5.4786,-5.5002,-5.4644,-5.4649,-5.4653,0,-5.3814,-5.3887,-5.4096,-5.4146,-5.4186,-5.4281,-5.4362,-5.4443,-5.4499,-5.4502,-5.4557,-5.4527,-5.4647,-5.4542,-5.4706,-5.4609,-5.4656,-5.4672,-5.468,-5.469,-5.4573,-5.4757,-5.507,-5.5102,-5.4699,-5.4696,-5.4692,0,-5.4012,-5.4163,-5.4307,-5.4342,-5.4405,-5.4472,-5.4501,-5.4551,-5.4606,-5.4676,-5.4711,-5.4795,-5.4841,-5.4905,-5.4897,-5.4822,-5.5064,-5.4958,-5.5068,-5.5069,-5.5122,-5.5119,-5.5446,-5.5153,-5.5153,-5.5152,-5.5151,0,-5.4269,-5.4399,-5.4397,-5.4486,-5.4628,-5.4611,-5.4752,-5.4773,-5.4818,-5.4908,-5.4863,-5.4948,-5.4933,-5.5018,-5.5012,-5.5148,-5.5169,-5.5174,-5.5171,-5.5178,-5.5177,-5.5208,-5.5193,-5.5161,-5.5159,-5.5157,-5.5156,0,-5.4516,-5.452,-5.4673,-5.4719,-5.4733,-5.4837,-5.4875,-5.4958,-5.4966,-5.5081,-5.5107,-5.5119,-5.5217,-5.5215,-5.5326,-5.5322,-5.5488,-5.5468,-5.547,-5.5466,-5.5576,-5.5565,-5.5935,-5.5982,-5.5659,-5.5662,-5.5664,0,-5.468,-5.4778,-5.4835,-5.4892,-5.4926,-5.5019,-5.5075,-5.5061,-5.512,-5.5191,-5.5265,-5.5358,-5.5432,-5.559,-5.5608,-5.5692,-5.5673,-5.5796,-5.5685,-5.5689,-5.5674,-5.5668,-5.5677,-5.5818,-5.5822,-5.5825,-5.5827,0,-5.497,-5.4967,-5.5049,-5.5133,-5.5201,-5.5266,-5.5325,-5.5374,-5.5366,-5.5435,-5.5535,-5.5592,-5.5705,-5.5798,-5.5878,-5.5906,-5.5866,-5.5862,-5.5892,-5.59,-5.5897,-5.5899,-5.5529,-5.5854,-5.5851,-5.5849,-5.5848,-5.5847,-5.5179,-5.5263,-5.5316,-5.5409,-5.5453,-5.5509,-5.5589,-5.5607,-5.569,-5.5781,-5.5767,-5.5878,-5.5929,-5.6033,-5.6068,-5.6153,-5.6109,-5.6153,-5.6164,-5.6175,-5.6187,-5.5884,-5.6168,-5.6167,-5.6166,-5.6166,-5.6165,0,-5.5467,-5.5497,-5.5583,-5.5668,-5.5741,-5.5697,-5.576,-5.5823,-5.5922,-5.5973,-5.6047,-5.616,-5.6249,-5.6274,-5.636,-5.6423,-5.6406,-5.6446,-5.6441,-5.6448,-5.6221,-5.6187,-5.6458,-5.6458,-5.6458,-5.6458,-5.6457,-5.6457,-5.5625,-5.5764,-5.5767,-5.5927,-5.5956,-5.6065,-5.6105,-5.6156,-5.6196,-5.6325,-5.64,-5.6415,-5.6456,-5.6543,-5.6623,-5.6627,-5.6661,-5.6708,-5.6705,-5.6493,-5.6464,-5.6436,-5.6403,-5.6715,-5.6716,-5.6925,-5.6926,-5.6928]}]]